Starlink 31084

operational
NORAD ID: 58630 Int'l Des: 2023-203 Owner: SPXS Country: US Constellation: starlink
LEOCIRCULAR

Starlink 31084について

説明を読み込み中...

リアルタイム位置

3D地球を読み込み中...

次回通過

高度履歴

Altitude vs Time

uPlot chart will show altitude changes over time

軌道要素

1 58630U 23203N 25350.80614734 .00002425 00000-0 97604-4 0 9993
2 58630 42.9996 178.7646 0001532 271.0200 89.0476 15.27583774110842
Epoch: Dec 16, 2025 • Age: 17 hours

現在のステータス

高度 482.6 km
速度 7.63 km/s
衛星直下点 17.79°N, 82.58°W
打ち上げ日 Dec 23, 2023
運用期間 1.9 years
タイプ internet

技術仕様

分類 Payload
質量 730.00 kg
乾燥質量 700.00 kg
総質量 730.00 kg
長さ 0.30 m
直径 4.10 m
スパン 29.00 m
形状 Box + pan
製造者 SPXS
バスタイプ Starlink V2M
フェーズステータス In Orbit
所有者/国 SPXS/US

大規模コンステレーション

Loading constellations...